Terminal Aerodrome Forecast
Issued by NWS Wilmington, OH

Current Version | Previous Version | Graphics & Text | Print | Product List | Glossary On
Versions: 1 2 3 4 5 6 7 8 9 10 11 12 13 14 15 16 17 18 19 20 21 22 23 24 25 26
000
FTUS41 KILN 302100 AAA
TAFDAY
TAF AMD
KDAY 302136Z 3022/0118 01006KT P6SM SCT015
     FM010200 02005KT P6SM SCT250
     FM010300 02003KT 3SM BR FEW250
      TEMPO 0108/0112 3/4SM BR OVC003
     FM011500 06003KT P6SM BKN012=

USA.gov is the U.S. government's official web portal to all federal, state and local government web resources and services.